When you browse on this site, cookies collect data to enhance your experience and personalize the content and advertising you see.
Visit our Privacy Policy to learn more. By continuing to use the site, you agree to this use of cookies and data.
  • In Hungary
  • List of Countries
  • For 7 days
  • Water Temperature
  • Satellite Maps
  • Weather Map
  • News
  • Weather Widgets
  • user-avatar
    Login

    Hourly Weather Senaki

    Today, 19 November, Monday

    Time Temperature Precipitation Wind Pressure Humidity
    00:00 +8°C° 0 mm 3 mps 766 mmHg 67%
    01:00 +7°C° 0 mm 3 mps 766 mmHg 65%
    02:00 +7°C° 0 mm 3 mps 766 mmHg 62%
    03:00 +7°C° 0 mm 3 mps 766 mmHg 59%
    04:00 +7°C° 0 mm 3 mps 766 mmHg 57%
    05:00 +8°C° 0 mm 3 mps 765 mmHg 56%
    06:00 +8°C° 0 mm 3 mps 765 mmHg 54%
    07:00 +9°C° 0 mm 3 mps 765 mmHg 52%
    08:00 +10°C° 0 mm 3 mps 764 mmHg 50%
    09:00 +11°C° 0 mm 3 mps 764 mmHg 47%
    10:00 +13°C° 0 mm 3 mps 764 mmHg 44%
    11:00 +16°C° 0 mm 3 mps 763 mmHg 41%
    12:00 +18°C° 0 mm 3 mps 762 mmHg 38%
    13:00 +18°C° 0 mm 3 mps 762 mmHg 39%
    14:00 +18°C° 0 mm 3 mps 762 mmHg 41%
    15:00 +18°C° 0 mm 3 mps 762 mmHg 43%
    16:00 +16°C° 0 mm 3 mps 762 mmHg 46%
    17:00 +14°C° 0 mm 3 mps 763 mmHg 49%
    18:00 +12°C° 0 mm 3 mps 763 mmHg 52%
    19:00 +12°C° 0 mm 4 mps 763 mmHg 51%
    20:00 +12°C° 0 mm 4 mps 763 mmHg 49%
    21:00 +12°C° 0 mm 4 mps 763 mmHg 48%
    22:00 +12°C° 0 mm 4 mps 763 mmHg 47%
    23:00 +12°C° 0 mm 4 mps 763 mmHg 46%

    Tomorrow, 20 November, Tuesday

    Time Temperature Precipitation Wind Pressure Humidity
    00:00 +12°C° 0 mm 4 mps 763 mmHg 45%
    01:00 +12°C° 0 mm 4 mps 763 mmHg 46%
    02:00 +12°C° 0 mm 4 mps 763 mmHg 47%
    03:00 +12°C° 0 mm 4 mps 763 mmHg 48%
    04:00 +12°C° 0 mm 4 mps 763 mmHg 50%
    05:00 +12°C° 0 mm 3 mps 763 mmHg 52%
    06:00 +12°C° 0 mm 3 mps 763 mmHg 54%
    07:00 +12°C° 0.1 mm 3 mps 763 mmHg 56%
    08:00 +13°C° 0.1 mm 3 mps 763 mmHg 58%
    09:00 +13°C° 0.1 mm 3 mps 763 mmHg 59%
    10:00 +14°C° 0.1 mm 3 mps 763 mmHg 58%
    11:00 +16°C° 0.1 mm 3 mps 762 mmHg 56%
    12:00 +17°C° 0.1 mm 2 mps 762 mmHg 54%
    13:00 +16°C° 1.1 mm 2 mps 762 mmHg 65%
    14:00 +15°C° 1.1 mm 2 mps 762 mmHg 75%
    15:00 +14°C° 1.1 mm 2 mps 762 mmHg 86%
    16:00 +14°C° 0.9 mm 2 mps 763 mmHg 88%
    17:00 +14°C° 0.9 mm 2 mps 763 mmHg 90%
    18:00 +13°C° 0.9 mm 2 mps 763 mmHg 92%
    19:00 +13°C° 0.6 mm 2 mps 763 mmHg 92%
    20:00 +13°C° 0.6 mm 2 mps 763 mmHg 92%
    21:00 +13°C° 0.6 mm 2 mps 763 mmHg 91%
    22:00 +13°C° 0.6 mm 2 mps 763 mmHg 92%
    23:00 +13°C° 0.6 mm 2 mps 763 mmHg 92%

    Day after tomorrow, 21 November, Wednesday

    Time Temperature Precipitation Wind Pressure Humidity
    00:00 +13°C° 0.6 mm 2 mps 763 mmHg 92%
    01:00 +13°C° 0.2 mm 2 mps 763 mmHg 92%
    02:00 +13°C° 0.2 mm 2 mps 763 mmHg 92%
    03:00 +12°C° 0.2 mm 1 mps 763 mmHg 92%
    04:00 +12°C° 0 mm 1 mps 763 mmHg 90%
    05:00 +12°C° 0 mm 1 mps 763 mmHg 89%
    06:00 +12°C° 0 mm 1 mps 762 mmHg 88%
    07:00 +13°C° 0.1 mm 1 mps 762 mmHg 85%
    08:00 +13°C° 0.1 mm 1 mps 762 mmHg 83%
    09:00 +13°C° 0.1 mm 1 mps 762 mmHg 80%
    10:00 +14°C° 0.1 mm 1 mps 761 mmHg 76%
    11:00 +15°C° 0.1 mm 1 mps 760 mmHg 71%
    12:00 +16°C° 0.1 mm 1 mps 759 mmHg 67%
    13:00 +16°C° 0.2 mm 1 mps 759 mmHg 69%
    14:00 +16°C° 0.2 mm 1 mps 758 mmHg 71%
    15:00 +16°C° 0.2 mm 1 mps 758 mmHg 73%
    16:00 +15°C° 0.5 mm 1 mps 758 mmHg 77%
    17:00 +14°C° 0.5 mm 1 mps 758 mmHg 81%
    18:00 +13°C° 0.5 mm 1 mps 758 mmHg 85%
    19:00 +13°C° 0.9 mm 1 mps 758 mmHg 86%
    20:00 +13°C° 0.9 mm 1 mps 758 mmHg 87%
    21:00 +13°C° 0.9 mm 1 mps 758 mmHg 88%
    22:00 +13°C° 1 mm 1 mps 758 mmHg 88%
    23:00 +12°C° 1 mm 2 mps 758 mmHg 88%

    22 November, Thursday

    Time Temperature Precipitation Wind Pressure Humidity
    00:00 +12°C° 1 mm 2 mps 758 mmHg 88%
    01:00 +12°C° 1.2 mm 2 mps 757 mmHg 89%
    02:00 +12°C° 1.2 mm 2 mps 757 mmHg 89%
    03:00 +12°C° 1.2 mm 2 mps 757 mmHg 90%
    04:00 +12°C° 1.5 mm 2 mps 757 mmHg 89%
    05:00 +12°C° 1.5 mm 2 mps 757 mmHg 89%
    06:00 +12°C° 1.5 mm 2 mps 757 mmHg 89%
    07:00 +12°C° 2.1 mm 2 mps 757 mmHg 89%
    08:00 +11°C° 2.1 mm 3 mps 757 mmHg 88%
    09:00 +11°C° 2.1 mm 3 mps 757 mmHg 88%
    10:00 +11°C° 2.2 mm 3 mps 757 mmHg 87%
    11:00 +11°C° 2.2 mm 3 mps 757 mmHg 87%
    12:00 +13°C° 2.2 mm 2 mps 757 mmHg 87%
    13:00 +12°C° 2.1 mm 2 mps 757 mmHg 87%
    14:00 +12°C° 2.1 mm 2 mps 757 mmHg 88%
    15:00 +12°C° 2.1 mm 2 mps 757 mmHg 89%
    16:00 +12°C° 1.6 mm 2 mps 757 mmHg 89%
    17:00 +12°C° 1.6 mm 2 mps 758 mmHg 90%
    18:00 +12°C° 1.6 mm 1 mps 758 mmHg 90%
    19:00 +12°C° 1.3 mm 1 mps 758 mmHg 90%
    20:00 +12°C° 1.3 mm 1 mps 759 mmHg 91%
    21:00 +12°C° 1.3 mm 1 mps 759 mmHg 91%
    22:00 +12°C° 1.3 mm 1 mps 759 mmHg 91%
    23:00 +12°C° 1.3 mm 1 mps 759 mmHg 92%

    23 November, Friday

    Time Temperature Precipitation Wind Pressure Humidity
    00:00 +11°C° 1.3 mm 1 mps 760 mmHg 92%
    01:00 +11°C° 1.8 mm 1 mps 760 mmHg 93%
    02:00 +11°C° 1.8 mm 1 mps 760 mmHg 93%
    03:00 +10°C° 1.8 mm 2 mps 760 mmHg 94%
    04:00 +10°C° 0.9 mm 2 mps 761 mmHg 94%
    05:00 +10°C° 0.9 mm 2 mps 761 mmHg 94%
    06:00 +10°C° 0.9 mm 2 mps 761 mmHg 94%
    07:00 +10°C° 0.5 mm 2 mps 762 mmHg 94%
    08:00 +10°C° 0.5 mm 2 mps 762 mmHg 93%
    09:00 +12°C° 0.5 mm 2 mps 762 mmHg 92%
    10:00 +11°C° 0.3 mm 3 mps 762 mmHg 90%
    11:00 +12°C° 0.3 mm 3 mps 762 mmHg 87%
    12:00 +12°C° 0.3 mm 3 mps 762 mmHg 85%
    13:00 +12°C° 0.3 mm 3 mps 763 mmHg 85%
    14:00 +12°C° 0.3 mm 3 mps 763 mmHg 85%
    15:00 +12°C° 0.3 mm 3 mps 763 mmHg 86%
    16:00 +11°C° 0.2 mm 3 mps 764 mmHg 88%
    17:00 +11°C° 0.2 mm 3 mps 764 mmHg 90%
    18:00 +10°C° 0.2 mm 2 mps 765 mmHg 92%
    19:00 +10°C° 0.4 mm 2 mps 766 mmHg 92%
    20:00 +10°C° 0.4 mm 2 mps 766 mmHg 92%
    21:00 +9°C° 0.4 mm 2 mps 767 mmHg 91%
    22:00 +9°C° 0.2 mm 2 mps 767 mmHg 91%
    23:00 +9°C° 0.2 mm 2 mps 767 mmHg 91%

    24 November, Saturday

    Time Temperature Precipitation Wind Pressure Humidity
    00:00 +10°C° 0.2 mm 1 mps 768 mmHg 91%
    01:00 +10°C° 0.1 mm 1 mps 768 mmHg 91%
    02:00 +10°C° 0.1 mm 1 mps 768 mmHg 91%
    03:00 +9°C° 0.1 mm 1 mps 768 mmHg 90%
    04:00 +9°C° 0 mm 1 mps 768 mmHg 89%
    05:00 +8°C° 0 mm 2 mps 768 mmHg 88%
    06:00 +8°C° 0 mm 2 mps 769 mmHg 86%
    07:00 +9°C° 0 mm 2 mps 769 mmHg 83%
    08:00 +9°C° 0 mm 2 mps 769 mmHg 80%
    09:00 +10°C° 0 mm 2 mps 769 mmHg 77%
    10:00 +12°C° 0 mm 2 mps 769 mmHg 71%
    11:00 +13°C° 0 mm 2 mps 768 mmHg 66%
    12:00 +15°C° 0 mm 2 mps 768 mmHg 61%
    13:00 +15°C° 0 mm 2 mps 768 mmHg 61%
    14:00 +15°C° 0 mm 2 mps 767 mmHg 61%
    15:00 +15°C° 0 mm 2 mps 767 mmHg 61%
    16:00 +14°C° 0 mm 2 mps 768 mmHg 63%
    17:00 +12°C° 0 mm 2 mps 768 mmHg 65%
    18:00 +10°C° 0 mm 2 mps 768 mmHg 68%
    19:00 +10°C° 0 mm 3 mps 768 mmHg 66%
    20:00 +9°C° 0 mm 3 mps 768 mmHg 64%
    21:00 +9°C° 0 mm 3 mps 768 mmHg 62%
    22:00 +9°C° 0 mm 3 mps 768 mmHg 62%
    23:00 +9°C° 0 mm 3 mps 768 mmHg 61%
    Show more